Regional Weather Roundup
Issued by NWS Goodland, KS

Home | Current Version | Previous Version | Text Only | Print | Product List | Glossary Off
Versions: 1 2 3 4 5 6 7 8 9 10 11 12 13 14 15 16 17 18 19 20 21 22 23 24 25 26 27 28 29 30 31 32 33 34 35 36 37 38 39 40 41 42 43 44 45 46 47 48 49 50

000
ASUS43 KGLD 160108
RWRGLD

GOODLAND FORECAST AREA HOURLY WEATHER ROUNDUP
NATIONAL WEATHER SERVICE GOODLAND KS
600 PM MST SUN JAN 15 2017

...OFFICIAL OBSERVATIONS...

CITY           SKY/WX    TMP DP  RH WIND       PRES   REMARKS
GOODLAND KS    CLOUDY    30  29  96 E5        29.98S
HILL CITY KS   MIX PCPN  30  30 100 E7        30.07S FOG
IMPERIAL NEB   FRZ RAIN  31  28  89 NE5       30.01F FOG
MCCOOK NEB     MIX PCPN  30  30 100 E6        30.05S FOG
AKRON CO       CLOUDY    29  26  89 NE3       29.95F
BURLINGTON CO  CLOUDY    32  29  88 NE5       29.97S
LIMON CO       CLOUDY    30  27  88 N9        29.94S
$$

...UNOFFICIAL OBSERVATIONS...

CITY           SKY/WX    TMP DP  RH WIND       PRES   REMARKS
LENORA KS        N/A     29  32 100 CALM        N/A
NORTON KS      MIX PCPN  30  27  86 NE6       30.05S
SHARON SPRINGS   N/A     30  29  94 CALM        N/A
TRENTON NEB      N/A     30  32 100 CALM        N/A
KIT CARSON CO    N/A     31  29  90 CALM        N/A
YUMA CO        LGT SNOW  28  28 100 N5        29.97F
$$




USA.gov is the U.S. government's official web portal to all federal, state and local government web resources and services.